DW4657 Weather Reports


Display with metric or nautical units.
time (UTC)temp
F
wind
direction
speed
MPH
gust
MPH
rain 1hr
in
rain 24hr
in
rain mn
in
humidity
%
barometer
mb
20260906011023 62 0 0.0 0.0 0.00 0.00 0.00 88 1012.4
20260906010525 62 0 0.0 0.0 0.00 0.00 0.00 88 1012.4
20260906010047 62 0 0.0 0.0 0.00 0.00 0.00 88 1012.3
20260906005525 62 0 0.0 0.0 0.00 0.00 0.00 88 1012.4
20260906005029 62 0 0.0 0.0 0.00 0.00 0.00 88 1012.4
20260906004543 62 0 0.0 0.0 0.00 0.00 0.00 88 1012.3
20260906004029 62 0 0.0 0.0 0.00 0.00 0.00 88 1012.3
20260906003525 62 0 0.0 0.0 0.00 0.00 0.00 88 1012.3
20260906003047 62 0 0.0 0.0 0.00 0.00 0.00 87 1012.3
20260906002524 63 0 0.0 0.0 0.00 0.00 0.00 87 1012.1
20260906002025 63 0 0.0 0.0 0.00 0.00 0.00 87 1012.1
20260906001548 63 0 0.0 0.0 0.00 0.00 0.00 87 1012.0
20260906001025 63 0 0.0 0.0 0.00 0.00 0.00 86 1011.9
20260906000525 63 0 0.0 0.0 0.00 0.00 0.00 86 1011.9
20260906000054 63 0 0.0 0.0 0.00 0.00 0.00 86 1011.8
20260905235523 63 0 0.0 0.0 0.00 0.00 0.00 86 1011.9
20260905235021 63 0 0.0 0.0 0.00 0.00 0.00 85 1011.8
20260905234545 63 0 0.0 0.0 0.00 0.00 0.00 85 1011.9
20260905234019 63 0 0.0 0.0 0.00 0.00 0.00 84 1011.8
20260905233524 64 0 0.0 0.0 0.00 0.00 0.00 84 1011.8
20260905233046 64 0 0.0 0.0 0.00 0.00 0.00 83 1011.6
20260905232524 64 0 0.0 0.0 0.00 0.00 0.00 83 1011.6
20260905232024 64 0 0.0 0.0 0.00 0.00 0.00 83 1011.6
20260905231545 64 0 0.0 0.0 0.00 0.00 0.00 82 1011.7
20260905231024 65 0 0.0 0.0 0.00 0.00 0.00 82 1011.7
20260905230524 65 0 0.0 0.0 0.00 0.00 0.00 82 1011.7
20260905230042 65 0 0.0 0.0 0.00 0.00 0.00 81 1011.6
20260905225525 65 0 0.0 0.0 0.00 0.00 0.00 81 1011.6
20260905225023 65 0 0.0 1.0 0.00 0.00 0.00 81 1011.7
20260905224550 65 0 0.0 1.0 0.00 0.00 0.00 81 1011.7
20260905224023 65 0 0.0 1.0 0.00 0.00 0.00 80 1011.8
20260905223525 65 0 0.0 3.0 0.00 0.00 0.00 79 1011.9
20260905223045 65 8 1.0 3.0 0.00 0.00 0.00 79 1011.8
20260905222524 65 0 0.0 2.0 0.00 0.00 0.00 80 1011.8
20260905222023 65 39 1.0 2.0 0.00 0.00 0.00 79 1011.8
20260905221543 65 30 0.0 3.0 0.00 0.00 0.00 79 1011.9
20260905221022 65 41 1.0 4.0 0.00 0.00 0.00 79 1011.9
20260905220523 65 20 1.0 4.0 0.00 0.00 0.00 79 1011.8
20260905220046 66 34 1.0 5.0 0.00 0.00 0.00 79 1011.7
20260905215524 66 18 2.0 5.0 0.00 0.00 0.00 78 1011.6
20260905215030 66 39 2.0 5.0 0.00 0.00 0.00 78 1011.5
20260905214544 66 359 2.0 5.0 0.00 0.00 0.00 79 1011.4
20260905214024 66 20 2.0 4.0 0.00 0.00 0.00 79 1011.4
20260905213525 66 28 2.0 6.0 0.00 0.00 0.00 79 1011.3
20260905213044 66 34 2.0 8.0 0.00 0.00 0.00 79 1011.3
20260905212522 66 27 2.0 8.0 0.00 0.00 0.00 78 1011.2
20260905212024 67 32 3.0 8.0 0.00 0.00 0.00 78 1011.2
20260905211550 67 359 3.0 8.0 0.00 0.00 0.00 78 1011.2
20260905211024 67 30 2.0 4.0 0.00 0.00 0.00 78 1011.0
20260905210524 67 356 1.0 6.0 0.00 0.00 0.00 78 1011.0
20260905210048 67 30 1.0 6.0 0.00 0.00 0.00 78 1011.0
20260905205524 67 18 1.0 5.0 0.00 0.00 0.00 77 1011.0
20260905205024 68 0 0.0 7.0 0.00 0.00 0.00 78 1010.9
20260905204546 68 310 3.0 7.0 0.00 0.00 0.00 77 1010.9
20260905204023 68 37 2.0 5.0 0.00 0.00 0.00 78 1010.9
20260905203521 68 27 1.0 5.0 0.00 0.00 0.00 77 1010.8
20260905203042 68 342 2.0 6.0 0.00 0.00 0.00 77 1010.7
20260905202526 68 41 1.0 6.0 0.00 0.00 0.00 76 1010.6
20260905202020 69 44 3.0 6.0 0.00 0.00 0.00 76 1010.6
20260905201546 69 22 2.0 6.0 0.00 0.00 0.00 76 1010.4
20260905201023 68 356 2.0 6.0 0.00 0.00 0.00 77 1010.5
20260905200526 68 353 1.0 7.0 0.00 0.00 0.00 77 1010.4
20260905200047 69 0 3.0 7.0 0.00 0.00 0.00 76 1010.4
20260905195524 69 25 3.0 5.0 0.00 0.00 0.00 77 1010.3
20260905195024 69 34 1.0 8.0 0.00 0.00 0.00 76 1010.3
20260905194545 69 34 2.0 8.0 0.00 0.00 0.00 77 1010.3
20260905194024 69 44 3.0 8.0 0.00 0.00 0.00 77 1010.3
20260905193521 69 20 4.0 8.0 0.00 0.00 0.00 75 1010.2
20260905193043 69 35 3.0 10.0 0.00 0.00 0.00 76 1010.4
20260905192524 69 9 3.0 10.0 0.00 0.00 0.00 77 1010.5
20260905192023 69 351 2.0 10.0 0.00 0.00 0.00 77 1010.4
20260905191550 69 37 3.0 10.0 0.00 0.00 0.00 77 1010.5
20260905191024 69 8 3.0 8.0 0.00 0.00 0.00 78 1010.5
20260905190524 69 34 3.0 8.0 0.00 0.00 0.00 77 1010.6
20260905190045 69 29 3.0 11.0 0.00 0.00 0.00 77 1010.7
20260905185524 69 4 3.0 11.0 0.00 0.00 0.00 77 1010.6
20260905185018 69 20 3.0 9.0 0.00 0.00 0.00 77 1010.4
20260905184608 69 43 5.0 9.0 0.00 0.00 0.00 76 1010.5
20260905184021 69 24 4.0 8.0 0.00 0.00 0.00 77 1010.5
20260905183526 69 30 2.0 9.0 0.00 0.00 0.00 78 1010.6
20260905183051 69 18 4.0 9.0 0.00 0.00 0.00 77 1010.7
20260905182526 70 345 3.0 9.0 0.00 0.00 0.00 76 1010.6
20260905182026 70 26 3.0 9.0 0.00 0.00 0.00 76 1010.5
20260905181555 71 28 3.0 10.0 0.00 0.00 0.00 75 1010.5
20260905181027 71 23 4.0 10.0 0.00 0.00 0.00 75 1010.5
20260905180524 71 345 4.0 8.0 0.00 0.00 0.00 74 1010.5
20260905180114 71 349 3.0 8.0 0.00 0.00 0.00 75 1010.4
20260905175525 70 39 3.0 8.0 0.00 0.00 0.00 75 1010.3
20260905175024 70 24 3.0 8.0 0.00 0.00 0.00 74 1010.3
20260905174547 71 33 1.0 7.0 0.00 0.00 0.00 75 1010.2
20260905174024 70 37 2.0 12.0 0.00 0.00 0.00 75 1010.2
20260905173525 70 26 4.0 12.0 0.00 0.00 0.00 76 1010.2
20260905173044 70 20 4.0 9.0 0.00 0.00 0.00 76 1010.1
20260905172525 69 25 3.0 8.0 0.00 0.00 0.00 77 1010.2
20260905172024 69 24 3.0 8.0 0.00 0.00 0.00 77 1010.1
20260905171544 69 31 2.0 9.0 0.00 0.00 0.00 78 1010.1
20260905171027 69 37 5.0 9.0 0.00 0.00 0.00 77 1010.1
20260905170522 69 29 2.0 9.0 0.00 0.00 0.00 77 1010.1
20260905170046 69 20 3.0 9.0 0.00 0.00 0.00 76 1010.1
20260905165525 69 39 4.0 8.0 0.00 0.00 0.00 77 1010.1
20260905165026 69 27 2.0 8.0 0.00 0.00 0.00 77 1010.1
20260905164546 69 15 1.0 9.0 0.00 0.00 0.00 78 1010.0
20260905164024 69 37 2.0 9.0 0.00 0.00 0.00 77 1009.9
20260905163524 69 16 2.0 5.0 0.00 0.00 0.00 78 1009.9
20260905163045 69 30 1.0 7.0 0.00 0.00 0.00 79 1010.0
20260905162519 69 23 3.0 7.0 0.00 0.00 0.00 79 1009.9
20260905162019 69 357 3.0 9.0 0.00 0.00 0.00 79 1009.9
20260905161542 69 27 2.0 9.0 0.00 0.00 0.00 79 1010.0
20260905161026 69 34 2.0 7.0 0.00 0.00 0.00 79 1009.9
20260905160524 69 18 2.0 10.0 0.00 0.00 0.00 78 1010.0
20260905160049 69 19 4.0 10.0 0.00 0.00 0.00 77 1009.9
20260905155524 70 27 3.0 7.0 0.00 0.00 0.00 77 1009.9
20260905155025 70 25 3.0 7.0 0.00 0.00 0.00 76 1009.9
20260905154607 70 23 2.0 6.0 0.00 0.00 0.00 76 1009.8
20260905154024 70 19 2.0 13.0 0.00 0.00 0.00 76 1009.8
20260905153526 70 29 6.0 13.0 0.00 0.00 0.00 75 1009.8
20260905153044 71 26 4.0 7.0 0.00 0.00 0.00 75 1009.7
20260905152519 71 27 3.0 9.0 0.00 0.00 0.00 75 1009.6
20260905152020 70 9 3.0 10.0 0.00 0.00 0.00 76 1009.6
20260905151544 70 51 5.0 10.0 0.00 0.00 0.00 75 1009.6
20260905151024 70 25 2.0 8.0 0.00 0.00 0.00 76 1009.6
20260905150524 70 18 1.0 8.0 0.00 0.00 0.00 76 1009.6
20260905150045 71 23 3.0 8.0 0.00 0.00 0.00 75 1009.5
20260905145525 71 37 3.0 8.0 0.00 0.00 0.00 75 1009.5
20260905145024 71 1 2.0 10.0 0.00 0.00 0.00 75 1009.4
20260905144546 70 39 5.0 10.0 0.00 0.00 0.00 75 1009.4
20260905144023 70 33 2.0 8.0 0.00 0.00 0.00 77 1009.4
20260905143524 69 29 4.0 10.0 0.00 0.00 0.00 77 1009.3
20260905143044 70 12 3.0 10.0 0.00 0.00 0.00 76 1009.4
20260905142519 71 30 2.0 8.0 0.00 0.00 0.00 76 1009.3
20260905142020 70 42 4.0 10.0 0.00 0.00 0.00 76 1009.2
20260905141542 70 36 3.0 10.0 0.00 0.00 0.00 76 1009.3
20260905141024 70 8 3.0 8.0 0.00 0.00 0.00 76 1009.2
20260905140524 70 13 1.0 9.0 0.00 0.00 0.00 76 1009.3
20260905140047 70 23 3.0 9.0 0.00 0.00 0.00 76 1009.3
20260905135525 70 41 4.0 8.0 0.00 0.00 0.00 77 1009.5
20260905135028 70 32 4.0 8.0 0.00 0.00 0.00 77 1009.5
20260905134543 70 32 2.0 7.0 0.00 0.00 0.00 78 1009.6
20260905134025 70 5 3.0 7.0 0.00 0.00 0.00 78 1009.6
20260905133519 70 354 2.0 6.0 0.00 0.00 0.00 77 1009.6
20260905133047 70 7 3.0 6.0 0.00 0.00 0.00 77 1009.4
20260905132525 70 37 2.0 8.0 0.00 0.00 0.00 77 1009.4
20260905132027 70 39 2.0 8.0 0.00 0.00 0.00 77 1009.3
20260905131545 70 7 1.0 7.0 0.00 0.00 0.00 77 1009.1
20260905131024 70 37 3.0 7.0 0.00 0.00 0.00 77 1009.2
20260905130526 70 41 3.0 7.0 0.00 0.00 0.00 77 1009.1
20260905130048 69 26 3.0 7.0 0.00 0.00 0.00 79 1009.0
20260905125518 69 37 2.0 6.0 0.00 0.00 0.00 79 1009.0
20260905125019 69 36 4.0 6.0 0.00 0.00 0.00 78 1009.1
20260905124542 69 28 2.0 7.0 0.00 0.00 0.00 80 1009.0
20260905124030 69 19 3.0 10.0 0.00 0.00 0.00 79 1009.0
20260905123524 68 4 5.0 10.0 0.00 0.00 0.00 79 1008.9
20260905123049 68 27 2.0 5.0 0.00 0.00 0.00 81 1008.9
20260905122525 68 31 2.0 5.0 0.00 0.00 0.00 81 1008.8
20260905122025 67 20 2.0 4.0 0.00 0.00 0.00 82 1008.7
20260905121545 67 0 1.0 6.0 0.00 0.00 0.00 83 1008.7
20260905121024 66 0 1.0 6.0 0.00 0.00 0.00 84 1008.8
20260905120524 66 352 1.0 5.0 0.00 0.00 0.00 85 1008.7
20260905120047 65 31 2.0 5.0 0.00 0.00 0.00 86 1008.7
20260905115523 64 0 1.0 4.0 0.00 0.00 0.00 87 1008.7
20260905115025 63 0 1.0 4.0 0.00 0.00 0.00 89 1008.6
20260905114547 63 43 0.0 4.0 0.00 0.00 0.00 91 1008.7
20260905114024 62 0 0.0 1.0 0.00 0.00 0.00 93 1008.7
20260905113524 61 0 0.0 2.0 0.00 0.00 0.00 94 1008.7
20260905113050 61 0 0.0 2.0 0.00 0.00 0.00 95 1008.7
20260905112524 60 0 0.0 0.0 0.00 0.00 0.00 95 1008.6
20260905112024 60 0 0.0 0.0 0.00 0.00 0.00 95 1008.7
20260905111616 59 0 0.0 0.0 0.00 0.00 0.00 95 1008.5
20260905111022 59 0 0.0 0.0 0.00 0.00 0.00 94 1008.5
20260905110518 59 0 0.0 0.0 0.00 0.00 0.00 94 1008.5
20260905110046 59 0 0.0 0.0 0.00 0.00 0.00 94 1008.3
20260905105525 58 0 0.0 0.0 0.00 0.00 0.00 94 1008.3
20260905105023 58 0 0.0 0.0 0.00 0.00 0.00 94 1008.2
20260905104544 58 0 0.0 0.0 0.00 0.00 0.00 94 1008.2
20260905104024 58 0 0.0 0.0 0.00 0.00 0.00 94 1008.2
20260905103527 58 0 0.0 0.0 0.00 0.00 0.00 94 1008.2
20260905103046 58 0 0.0 0.0 0.00 0.00 0.00 94 1008.2
20260905102524 58 0 0.0 0.0 0.00 0.00 0.00 93 1008.2
20260905102024 58 0 0.0 0.0 0.00 0.00 0.00 93 1008.2
20260905101553 58 0 0.0 0.0 0.00 0.00 0.00 93 1008.1
20260905101019 58 0 0.0 0.0 0.00 0.00 0.00 93 1008.2
20260905100519 58 0 0.0 0.0 0.00 0.00 0.00 93 1008.1
20260905100050 58 0 0.0 0.0 0.00 0.00 0.00 93 1008.2
20260905095524 58 0 0.0 0.0 0.00 0.00 0.00 93 1008.1
20260905095024 58 0 0.0 0.0 0.00 0.00 0.00 93 1008.2
20260905094546 58 0 0.0 0.0 0.00 0.00 0.00 93 1008.1
20260905094023 59 0 0.0 0.0 0.00 0.00 0.00 93 1008.0
20260905093524 59 0 0.0 0.0 0.00 0.00 0.00 93 1008.1
20260905093044 59 0 0.0 0.0 0.00 0.00 0.00 93 1008.1
20260905092522 59 0 0.0 0.0 0.00 0.00 0.00 92 1008.0
20260905092020 59 0 0.0 0.0 0.00 0.00 0.00 92 1008.0
20260905091541 59 0 0.0 0.0 0.00 0.00 0.00 92 1007.9
20260905091022 59 0 0.0 0.0 0.00 0.00 0.00 92 1008.0
20260905090525 59 0 0.0 0.0 0.00 0.00 0.00 92 1008.0
20260905090045 59 0 0.0 0.0 0.00 0.00 0.00 92 1008.0
20260905085527 59 0 0.0 0.0 0.00 0.00 0.00 92 1007.9
20260905085026 59 0 0.0 0.0 0.00 0.00 0.00 92 1007.9
20260905084550 59 0 0.0 0.0 0.00 0.00 0.00 92 1007.9
20260905084114 60 0 0.0 0.0 0.00 0.00 0.00 92 1008.0
20260905083519 60 0 0.0 0.0 0.00 0.00 0.00 92 1008.0
20260905083042 60 0 0.0 0.0 0.00 0.00 0.00 92 1008.0
20260905082524 60 0 0.0 0.0 0.00 0.00 0.00 92 1007.9
20260905082022 60 0 0.0 0.0 0.00 0.00 0.00 92 1008.0
20260905081541 60 0 0.0 0.0 0.00 0.00 0.00 92 1007.9
20260905081024 60 0 0.0 0.0 0.00 0.00 0.00 92 1008.0
20260905080522 60 0 0.0 0.0 0.00 0.00 0.00 91 1008.0
20260905080055 60 0 0.0 0.0 0.00 0.00 0.00 91 1008.1
20260905075523 60 0 0.0 0.0 0.00 0.00 0.00 91 1008.0
20260905075023 60 0 0.0 0.0 0.00 0.00 0.00 91 1008.0
20260905074547 60 0 0.0 0.0 0.00 0.00 0.00 92 1008.0
20260905074021 60 0 0.0 0.0 0.00 0.00 0.00 91 1007.9
20260905073521 60 0 0.0 0.0 0.00 0.00 0.00 91 1008.0
20260905073047 60 0 0.0 0.0 0.00 0.00 0.00 91 1008.1
20260905072524 61 0 0.0 0.0 0.00 0.00 0.00 91 1008.0
20260905072027 61 0 0.0 0.0 0.00 0.00 0.00 91 1008.1
20260905071546 61 0 0.0 0.0 0.00 0.00 0.00 91 1008.1
20260905071026 61 0 0.0 0.0 0.00 0.00 0.00 91 1008.0
20260905070524 61 0 0.0 0.0 0.00 0.00 0.00 91 1008.1
20260905070045 61 0 0.0 0.0 0.00 0.00 0.00 91 1008.1
20260905065525 61 0 0.0 0.0 0.00 0.00 0.00 91 1008.2
20260905065018 61 0 0.0 0.0 0.00 0.00 0.00 91 1008.3
20260905064543 61 0 0.0 0.0 0.00 0.00 0.00 91 1008.3
20260905064020 61 0 0.0 0.0 0.00 0.00 0.00 91 1008.6
20260905063520 61 0 0.0 0.0 0.00 0.00 0.00 91 1008.6
20260905063042 61 0 0.0 0.0 0.00 0.00 0.00 91 1008.5
20260905062528 61 0 0.0 0.0 0.00 0.00 0.00 91 1008.5
20260905062024 61 0 0.0 0.0 0.00 0.00 0.00 90 1008.6
20260905061541 61 0 0.0 0.0 0.00 0.00 0.00 90 1008.6
20260905061023 61 0 0.0 0.0 0.00 0.00 0.00 90 1008.6
20260905060524 61 0 0.0 0.0 0.00 0.00 0.00 90 1008.6
20260905060045 62 0 0.0 0.0 0.00 0.00 0.00 90 1008.5
20260905055523 62 0 0.0 0.0 0.00 0.00 0.00 90 1008.5
20260905055023 62 0 0.0 0.0 0.00 0.00 0.00 90 1008.7
20260905054543 62 0 0.0 0.0 0.00 0.00 0.00 90 1008.6
20260905054019 62 0 0.0 0.0 0.00 0.00 0.00 90 1008.7
20260905053521 62 0 0.0 0.0 0.00 0.00 0.00 90 1008.6
20260905053044 62 0 0.0 0.0 0.00 0.00 0.00 90 1008.6
20260905052528 62 0 0.0 0.0 0.00 0.00 0.00 90 1008.6
20260905052027 62 0 0.0 1.0 0.00 0.00 0.00 90 1008.6
20260905051550 62 0 0.0 1.0 0.00 0.00 0.00 89 1008.7
20260905051023 62 0 0.0 0.0 0.00 0.00 0.00 89 1008.6
20260905050524 63 0 0.0 0.0 0.00 0.00 0.00 89 1008.6
20260905050045 63 0 0.0 0.0 0.00 0.00 0.00 90 1008.6
20260905045523 63 0 0.0 0.0 0.00 0.00 0.00 90 1008.5
20260905045027 63 0 0.0 0.0 0.00 0.00 0.00 90 1008.6
20260905044545 62 0 0.0 0.0 0.00 0.00 0.00 90 1008.5
20260905044021 62 0 0.0 0.0 0.00 0.00 0.00 90 1008.6
20260905043518 62 0 0.0 0.0 0.00 0.00 0.00 90 1008.6
20260905043053 62 0 0.0 0.0 0.00 0.00 0.00 90 1008.6
20260905042523 62 0 0.0 0.0 0.00 0.00 0.00 90 1008.7
20260905042027 62 0 0.0 0.0 0.00 0.00 0.00 90 1008.7
20260905041545 63 0 0.0 0.0 0.00 0.00 0.00 90 1008.7
20260905041023 63 0 0.0 0.0 0.00 0.00 0.00 90 1008.6
20260905040523 63 0 0.0 0.0 0.00 0.00 0.00 90 1008.6
20260905040046 63 0 0.0 0.0 0.00 0.00 0.00 90 1008.6
20260905035523 63 0 0.0 0.0 0.00 0.00 0.00 90 1008.6
20260905035027 63 0 0.0 0.0 0.00 0.00 0.00 90 1008.6
20260905034554 63 0 0.0 0.0 0.00 0.00 0.00 90 1008.6
20260905034023 63 0 0.0 0.0 0.00 0.00 0.00 90 1008.5
20260905033526 63 0 0.0 0.0 0.00 0.00 0.00 90 1008.5
20260905033109 63 0 0.0 0.0 0.00 0.00 0.00 90 1008.4
20260905032523 63 0 0.0 0.0 0.00 0.00 0.00 90 1008.6
20260905032027 64 0 0.0 0.0 0.00 0.00 0.00 90 1008.6
20260905031554 64 0 0.0 0.0 0.00 0.00 0.00 90 1008.6
20260905031025 64 0 0.0 0.0 0.00 0.00 0.00 91 1008.6
20260905030525 64 0 0.0 0.0 0.00 0.00 0.00 91 1008.6
20260905030055 64 0 0.0 0.0 0.00 0.00 0.00 90 1008.5
20260905025523 64 0 0.0 0.0 0.00 0.00 0.00 91 1008.5
20260905025023 64 0 0.0 0.0 0.00 0.00 0.00 91 1008.5
20260905024539 64 0 0.0 0.0 0.00 0.00 0.00 91 1008.5
20260905024023 64 0 0.0 0.0 0.00 0.00 0.00 91 1008.6
20260905023524 64 0 0.0 0.0 0.00 0.00 0.00 91 1008.5
20260905023055 65 0 0.0 0.0 0.00 0.00 0.00 91 1008.5
20260905022524 65 0 0.0 0.0 0.00 0.00 0.00 90 1008.5
20260905022029 65 0 0.0 0.0 0.00 0.00 0.00 90 1008.5
20260905021547 65 0 0.0 0.0 0.00 0.00 0.00 90 1008.5
20260905021024 65 0 0.0 0.0 0.00 0.00 0.00 90 1008.6
20260905020527 65 0 0.0 0.0 0.00 0.00 0.00 90 1008.6
20260905020043 65 0 0.0 0.0 0.00 0.00 0.00 89 1008.7
20260905015519 66 0 0.0 0.0 0.00 0.00 0.00 90 1008.7
20260905015020 66 0 0.0 0.0 0.00 0.00 0.00 89 1008.8
20260905014543 66 0 0.0 0.0 0.00 0.00 0.00 89 1008.9
20260905014019 66 0 0.0 0.0 0.00 0.00 0.00 89 1009.0
20260905013518 67 0 0.0 0.0 0.00 0.00 0.00 88 1009.0
20260905013044 67 0 0.0 1.0 0.00 0.00 0.00 88 1008.9
20260905012524 67 0 0.0 1.0 0.00 0.00 0.00 87 1008.9
20260905012018 67 0 0.0 2.0 0.00 0.00 0.00 87 1008.8
20260905011547 68 115 0.0 2.0 0.00 0.00 0.00 86 1008.7